Cape May, NJ

12:49 PM EST on January 22, 2017 (GMT -0500)
Cape May County

Weather History for KWWD - March, 2013

Change the Weather History Date:

Monday, March 4, 2013

  Actual Average Record
Temperature  
Mean Temperature 34 °F -  
Max Temperature 39 °F 45 °F 62 °F (2008)
Min Temperature 30 °F 32 °F 8 °F (2009)
Degree Days  
Heating Degree Days 30    
Moisture  
Dew Point 19 °F    
Average Humidity 53    
Maximum Humidity 60    
Minimum Humidity 48    
Precipitation  
Precipitation 0.00 in - - ()
Sea Level Pressure  
Sea Level Pressure 29.90 in    
Wind  
Wind Speed 14 mph (NW)    
Max Wind Speed 21 mph    
Max Gust Speed 32 mph    
Visibility 10 miles    
Events      
Averages and records for this station are not official NWS values.
T = Trace of Precipitation, MM = Missing Value Source: NWS Daily Summary

Daily Weather History Graph

Daily Weather History Graph

Search for Another Location

Airport or City:

Trip Planner

Search our weather history database for the weather conditions in past years. The results will help you decide how hot, cold, wet, or windy it might be!

Date:

Astronomy

Mar. 04, 2013 Rise Set
Actual Time 6:27 AM EST 5:55 PM EST
Civil Twilight 6:00 AM EST 6:22 PM EST
Nautical Twilight 5:29 AM EST 6:53 PM EST
Astronomical Twilight 4:58 AM EST 7:24 PM EST
Moon 12:32 AM EST (3/4) 10:37 AM EST (3/4)
Length of Visible Light 12h 21m
Length of Day
11h 28m
Waning Gibbous, 52% of the Moon is Illuminated
Mar 4
Waning Gibbous
Mar 4
Last Quarter
Mar 11
New
Mar 19
First Quarter
Mar 27
Full

Hourly Weather History & Observations

Time (EST) Temp. Windchill Dew Point Humidity Pressure Visibility Wind Dir Wind Speed Gust Speed Precip Events Conditions
12:15 AM 35.6 °F 28.0 °F 19.4 °F 52% 29.83 in 10.0 mi NW 10.4 mph 20.7 mph N/A   Overcast
12:35 AM 35.6 °F 28.0 °F 19.4 °F 52% 29.83 in 10.0 mi WNW 10.4 mph 21.9 mph N/A   Overcast
12:55 AM 35.6 °F 26.6 °F 19.4 °F 52% 29.83 in 10.0 mi WNW 13.8 mph 23.0 mph N/A   Overcast
1:15 AM 35.6 °F 26.2 °F 19.4 °F 52% 29.84 in 10.0 mi WNW 15.0 mph 21.9 mph N/A   Overcast
1:35 AM 35.6 °F 26.2 °F 19.4 °F 52% 29.84 in 10.0 mi WNW 15.0 mph 25.3 mph N/A   Overcast
1:55 AM 33.8 °F 23.9 °F 19.4 °F 56% 29.84 in 10.0 mi NW 15.0 mph 23.0 mph N/A   Overcast
2:35 AM 33.8 °F 25.3 °F 17.6 °F 52% 29.84 in 10.0 mi NW 11.5 mph 25.3 mph N/A   Mostly Cloudy
2:55 AM 33.8 °F 24.3 °F 17.6 °F 52% 29.84 in 10.0 mi NNW 13.8 mph 24.2 mph N/A   Mostly Cloudy
3:15 AM 33.8 °F 25.8 °F 17.6 °F 52% 29.84 in 10.0 mi NW 10.4 mph 17.3 mph N/A   Overcast
3:35 AM 33.8 °F 24.3 °F 17.6 °F 52% 29.84 in 10.0 mi NW 13.8 mph 19.6 mph N/A   Overcast
3:55 AM 33.8 °F 24.8 °F 17.6 °F 52% 29.84 in 10.0 mi WNW 12.7 mph 20.7 mph N/A   Overcast
4:15 AM 33.8 °F 24.8 °F 17.6 °F 52% 29.85 in 10.0 mi NW 12.7 mph 21.9 mph N/A   Overcast
4:35 AM 33.8 °F 23.5 °F 17.6 °F 52% 29.85 in 10.0 mi WNW 16.1 mph 21.9 mph N/A   Overcast
4:55 AM 33.8 °F 24.3 °F 17.6 °F 52% 29.86 in 10.0 mi WNW 13.8 mph 23.0 mph N/A   Overcast
5:15 AM 32.0 °F 22.5 °F 17.6 °F 55% 29.87 in 10.0 mi WNW 12.7 mph 25.3 mph N/A   Overcast
5:35 AM 32.0 °F 22.1 °F 17.6 °F 55% 29.87 in 10.0 mi WNW 13.8 mph 20.7 mph N/A   Overcast
5:55 AM 32.0 °F 22.5 °F 17.6 °F 55% 29.88 in 10.0 mi WNW 12.7 mph 21.9 mph N/A   Overcast
6:15 AM 32.0 °F 22.5 °F 17.6 °F 55% 29.88 in 10.0 mi WNW 12.7 mph 20.7 mph N/A   Overcast
6:35 AM 30.2 °F 18.1 °F 17.6 °F 60% 29.88 in 10.0 mi WNW 18.4 mph 23.0 mph N/A   Overcast
6:55 AM 30.2 °F 18.1 °F 15.8 °F 55% 29.89 in 10.0 mi NW 18.4 mph 28.8 mph N/A   Overcast
7:15 AM 30.2 °F 18.5 °F 17.6 °F 60% 29.90 in 10.0 mi NW 17.3 mph 26.5 mph N/A   Overcast
7:35 AM 30.2 °F 19.3 °F 17.6 °F 60% 29.91 in 10.0 mi WNW 15.0 mph 25.3 mph N/A   Overcast
7:55 AM 30.2 °F 19.3 °F 17.6 °F 60% 29.91 in 10.0 mi WNW 15.0 mph 20.7 mph N/A   Overcast
8:15 AM 30.2 °F 19.3 °F 17.6 °F 60% 29.92 in 10.0 mi West 15.0 mph 21.9 mph N/A   Overcast
8:35 AM 32.0 °F 21.6 °F 17.6 °F 55% 29.92 in 10.0 mi NW 15.0 mph 23.0 mph N/A   Overcast
8:55 AM 32.0 °F 22.1 °F 17.6 °F 55% 29.92 in 10.0 mi WNW 13.8 mph 21.9 mph N/A   Overcast
9:15 AM 32.0 °F 22.5 °F 17.6 °F 55% 29.92 in 10.0 mi WNW 12.7 mph 24.2 mph N/A   Overcast
9:35 AM 33.8 °F 23.2 °F 17.6 °F 52% 29.92 in 10.0 mi WNW 17.3 mph 32.2 mph N/A   Overcast
9:55 AM 33.8 °F 24.3 °F 17.6 °F 52% 29.92 in 10.0 mi WNW 13.8 mph 23.0 mph N/A   Overcast
10:15 AM 33.8 °F 24.3 °F 17.6 °F 52% 29.92 in 10.0 mi NW 13.8 mph 23.0 mph N/A   Mostly Cloudy
10:35 AM 33.8 °F 25.3 °F 17.6 °F 52% 29.92 in 10.0 mi NW 11.5 mph 26.5 mph N/A   Overcast
10:55 AM 33.8 °F 22.2 °F 17.6 °F 52% 29.91 in 10.0 mi WNW 20.7 mph 32.2 mph N/A   Overcast
11:15 AM 35.6 °F 25.9 °F 17.6 °F 48% 29.91 in 10.0 mi WNW 16.1 mph 25.3 mph N/A   Mostly Cloudy
11:35 AM 35.6 °F 25.2 °F 19.4 °F 52% 29.91 in 10.0 mi WNW 18.4 mph 28.8 mph N/A   Mostly Cloudy
11:55 AM 35.6 °F 25.2 °F 17.6 °F 48% 29.91 in 10.0 mi WNW 18.4 mph 29.9 mph N/A   Mostly Cloudy
12:15 PM 35.6 °F 26.6 °F 19.4 °F 52% 29.91 in 10.0 mi WNW 13.8 mph 28.8 mph N/A   Partly Cloudy
12:35 PM 35.6 °F 25.2 °F 19.4 °F 52% 29.90 in 10.0 mi WNW 18.4 mph 28.8 mph N/A   Clear
12:55 PM 37.4 °F 28.2 °F 19.4 °F 48% 29.89 in 10.0 mi WNW 16.1 mph 27.6 mph N/A   Clear
1:15 PM 37.4 °F 27.5 °F 19.4 °F 48% 29.89 in 10.0 mi WNW 18.4 mph 26.5 mph N/A   Clear
1:55 PM 37.4 °F 28.5 °F 19.4 °F 48% 29.88 in 10.0 mi NW 15.0 mph 26.5 mph N/A   Clear
2:15 PM 37.4 °F 28.2 °F 21.2 °F 52% 29.88 in 10.0 mi NW 16.1 mph 23.0 mph N/A   Clear
2:35 PM 37.4 °F 27.5 °F 21.2 °F 52% 29.88 in 10.0 mi NW 18.4 mph 24.2 mph N/A   Clear
2:55 PM 39.2 °F 30.5 °F 21.2 °F 49% 29.87 in 10.0 mi NW 16.1 mph 26.5 mph N/A   Clear
3:15 PM 39.2 °F 31.6 °F 21.2 °F 49% 29.88 in 10.0 mi WNW 12.7 mph 23.0 mph N/A   Clear
3:35 PM 39.2 °F 31.6 °F 21.2 °F 49% 29.87 in 10.0 mi WNW 12.7 mph 23.0 mph N/A   Clear
3:55 PM 39.2 °F 31.6 °F 21.2 °F 49% 29.87 in 10.0 mi NW 12.7 mph 19.6 mph N/A   Clear
4:15 PM 39.2 °F 32.5 °F 21.2 °F 49% 29.88 in 10.0 mi NW 10.4 mph 21.9 mph N/A   Clear
4:35 PM 39.2 °F 32.0 °F 21.2 °F 49% 29.88 in 10.0 mi WNW 11.5 mph 18.4 mph N/A   Clear
4:55 PM 39.2 °F 31.6 °F 21.2 °F 49% 29.88 in 10.0 mi WNW 12.7 mph 17.3 mph N/A   Clear
5:15 PM 39.2 °F 31.2 °F 21.2 °F 49% 29.89 in 10.0 mi NW 13.8 mph 24.2 mph N/A   Clear
5:35 PM 37.4 °F 29.3 °F 21.2 °F 52% 29.90 in 10.0 mi NW 12.7 mph 24.2 mph N/A   Clear
5:55 PM 37.4 °F 28.9 °F 21.2 °F 52% 29.90 in 10.0 mi NW 13.8 mph 20.7 mph N/A   Clear
6:15 PM 37.4 °F 28.9 °F 21.2 °F 52% 29.91 in 10.0 mi NW 13.8 mph 23.0 mph N/A   Clear
6:35 PM 37.4 °F 30.3 °F 21.2 °F 52% 29.92 in 10.0 mi NW 10.4 mph 18.4 mph N/A   Clear
6:55 PM 37.4 °F 29.8 °F 21.2 °F 52% 29.93 in 10.0 mi NW 11.5 mph 19.6 mph N/A   Clear
7:15 PM 37.4 °F 28.9 °F 21.2 °F 52% 29.94 in 10.0 mi NW 13.8 mph 20.7 mph N/A   Clear
7:35 PM 37.4 °F 29.3 °F 19.4 °F 48% 29.95 in 10.0 mi NW 12.7 mph 21.9 mph N/A   Clear
7:55 PM 35.6 °F 28.6 °F 21.2 °F 56% 29.95 in 10.0 mi NW 9.2 mph 18.4 mph N/A   Clear
8:15 PM 35.6 °F 27.1 °F 21.2 °F 56% 29.96 in 10.0 mi NW 12.7 mph 19.6 mph N/A   Clear
8:35 PM 35.6 °F 26.2 °F 21.2 °F 56% 29.97 in 10.0 mi WNW 15.0 mph 20.7 mph N/A   Clear
8:55 PM 35.6 °F 28.0 °F 19.4 °F 52% 29.97 in 10.0 mi NW 10.4 mph 21.9 mph N/A   Clear
9:35 PM 35.6 °F 25.5 °F 19.4 °F 52% 29.98 in 10.0 mi WNW 17.3 mph 27.6 mph N/A   Clear
9:55 PM 35.6 °F 26.6 °F 19.4 °F 52% 29.98 in 10.0 mi WNW 13.8 mph 21.9 mph N/A   Clear
10:15 PM 35.6 °F 26.6 °F 19.4 °F 52% 29.99 in 10.0 mi WNW 13.8 mph 21.9 mph N/A   Clear
10:35 PM 35.6 °F 26.6 °F 19.4 °F 52% 29.99 in 10.0 mi WNW 13.8 mph 28.8 mph N/A   Clear
10:55 PM 33.8 °F 23.5 °F 19.4 °F 56% 29.99 in 10.0 mi WNW 16.1 mph 24.2 mph N/A   Clear
11:15 PM 33.8 °F 24.3 °F 19.4 °F 56% 29.99 in 10.0 mi WNW 13.8 mph 21.9 mph N/A   Clear
11:35 PM 33.8 °F 23.5 °F 19.4 °F 56% 29.99 in 10.0 mi WNW 16.1 mph 21.9 mph N/A   Clear
11:55 PM 33.8 °F 23.5 °F 19.4 °F 56% 29.99 in 10.0 mi NW 16.1 mph 23.0 mph N/A   Clear